Miscellaneous Local Product
Issued by NWS Hastings, NE

Home | Current Version | Previous Version | Text Only | Print | Product List | Glossary On
Versions: 1 2 3 4 5 6 7 8 9 10 11 12 13 14 15 16 17 18 19 20 21 22 23 24 25 26 27 28 29 30 31 32 33 34 35 36 37 38 39 40 41 42 43 44 45 46 47 48 49 50
418
AXUS43 KGID 231002
MISGRI

GID CWA HOURLY WEATHER ROUNDUP
NATIONAL WEATHER SERVICE HASTINGS NE
500 AM CDT FRI JUN 23 2017

NOTE: "FAIR" INDICATES FEW OR NO CLOUDS BELOW 12,000 FEET WITH NO
SIGNIFICANT WEATHER AND/OR OBSTRUCTIONS TO VISIBILITY.

...SOUTH CENTRAL NEBRASKA...

CITY           SKY/WX    TMP DP  RH WIND       PRES   REMARKS
GRAND ISLAND   CLOUDY    61  57  87 NW9       29.96R
HASTINGS       CLOUDY    64  54  69 N16       29.95R
KEARNEY        CLOUDY    63  50  63 NW12      30.00R
ORD            LGT RAIN  63  44  50 N17G25    29.94R
YORK           CLOUDY    63  57  82 NW3       29.89R
AURORA         CLOUDY    60  56  84 NW8       29.92R
LEXINGTON      LGT RAIN  62  54  75 NW5       30.00R
HOLDREGE       CLOUDY    62  51  67 N10       29.98R
HEBRON         PTCLDY    67  59  75 N5        29.87R

...NEBRASKA PANHANDLE...

CITY           SKY/WX    TMP DP  RH WIND       PRES   REMARKS
CHADRON        LGT RAIN  52  47  83 SW8       30.18F
ALLIANCE       CLOUDY    55  38  52 N15       30.18R
SCOTTSBLUFF    CLOUDY    57  40  52 N17G30    30.24R
SIDNEY         LGT RAIN  54  46  74 N12       30.19R

...WESTERN AND NORTH CENTRAL NEBRASKA...

CITY           SKY/WX    TMP DP  RH WIND       PRES   REMARKS
VALENTINE      CLOUDY    61  35  37 NW14      30.09R
AINSWORTH      MOCLDY    60  38  45 N17G25    30.07R
ONEILL         MOCLDY    61  44  54 NW13      30.01R
BROKEN BOW     CLOUDY    64  45  49 N20       29.99R
IMPERIAL       LGT RAIN  59  52  77 N3        30.09R
NORTH PLATTE   CLOUDY    62  47  57 N9        30.04R
MCCOOK         LGT RAIN  61  54  77 W8        30.08R

...EASTERN NEBRASKA...

CITY           SKY/WX    TMP DP  RH WIND       PRES   REMARKS
NORFOLK        CLOUDY    57  52  83 NW5       29.90R
SO SIOUX CITY    N/A    N/A N/A N/A MISG      29.85R
TEKAMAH        PTCLDY    57  51  80 NW7       29.85R
COLUMBUS       CLOUDY    60  55  83 W8        29.91R
ALBION         MOCLDY    59  51  74 W3        29.93R
OMAHA EPPLEY   MOCLDY    65  55  70 N10       29.81R
OFFUTT AFB     PTCLDY    68  54  60 CALM      29.88R
MILLARD        CLEAR     68  61  77 NW5       29.82R
LINCOLN        CLOUDY    65  58  78 N10       29.83S
NEBRASKA CITY  CLOUDY    66  64  96 N6        29.82R
BEATRICE       CLOUDY    68  59  73 NE8       29.82F
FALLS CITY     MOCLDY    68  63  84 N6        29.79R

...NORTHERN KANSAS...

CITY           SKY/WX    TMP DP  RH WIND       PRES   REMARKS
GOODLAND       CLOUDY    62  48  60 N20       30.04R
HILL CITY      CLOUDY    65  56  72 N13       29.91R
NORTON         MOSUNNY   61  48  63 NW12      29.96
PHILLIPSBURG   CLEAR     66  55  68 N10       29.91R
SMITH CENTER   CLEAR     64  55  72 N17       29.89R
HAYS           PTCLDY    67  61  81 N20       29.84R
RUSSELL        CLEAR     68  60  75 N18G28    29.81R
CONCORDIA      PTCLDY    70  61  73 N14       29.81F
SALINA         CLOUDY    75  64  68 N21G30    29.77R
TOPEKA         CLOUDY    75  70  84 N20G26    29.73R



USA.gov is the U.S. government's official web portal to all federal, state and local government web resources and services.